Location: Pedro
(43.9050°N, 104.3408°W)
Time: 07:02:41
(UTC+00:00)

Envisat - Visible Passes

Search period start: 28 May 2023 00:00
Search period end: 07 June 2023 00:00
Orbit: 763 x 765 km, 98.2° (Epoch: 27 May)

Date Brightness Start Highest point End Pass type
(mag) Time Alt. Az. Time Alt. Az. Time Alt. Az.
28 May 5.5 09:37:39 10° NE 09:40:46 16° E 09:43:53 10° SE visible
29 May 3.6 10:38:02 10° NNE 10:43:04 59° E 10:48:04 10° S visible
30 May 4.9 10:01:26 10° NE 10:05:45 27° E 10:10:01 10° SSE visible
31 May 5.7 09:26:08 10° ENE 09:28:12 12° E 09:30:15 10° ESE visible
01 Jun 4.0 10:25:44 10° NNE 10:30:36 46° E 10:35:28 10° S visible
02 Jun 5.2 09:49:22 10° NE 09:53:13 21° E 09:57:02 10° SE visible
04 Jun 4.5 10:13:28 10° NNE 10:18:08 35° E 10:22:45 10° SSE visible
05 Jun 5.5 09:37:29 10° NE 09:40:39 16° E 09:43:49 10° SE visible
06 Jun 3.6 10:37:54 10° NNE 10:42:57 60° ESE 10:47:57 10° S visible
